Regional Weather Roundup
Issued by NWS

Home | Current Version | Previous Version | Graphics & Text | Print | Product List | Glossary Off
Versions: 1 2 3 4 5 6 7 8 9 10 11 12 13 14 15 16 17 18 19 20 21 22 23 24 25 26 27 28 29 30 31 32 33 34 35 36 37 38 39 40 41 42 43 44 45 46 47 48 49 50

000
ASUS43 KTOP 260759
RWRKS

WEATHER ROUNDUP FOR KANSAS
NATIONAL WEATHER SERVICE GOODLAND KS
300 AM CDT SAT MAY 26 2018

NOTE:  "FAIR" INDICATES FEW OR NO CLOUDS BELOW 12,000 FEET WITH NO
SIGNIFICANT WEATHER AND/OR OBSTRUCTIONS TO VISIBILITY.

KSZ001>006-013>018-027>032-041>047-260900-
NORTHWEST KANSAS

CITY           SKY/WX    TMP DP  RH WIND       PRES   REMARKS
GOODLAND       CLEAR     65  53  65 S12       29.91F
HAYS           CLEAR     68  65  90 SW9       29.85S
HILL CITY      CLEAR     72  62  71 SW8       29.85S
RUSSELL        CLEAR     68  67  96 SW12      29.82F
$$

KSZ061>065-074>080-084>089-260900-
SOUTHWEST KANSAS

CITY           SKY/WX    TMP DP  RH WIND       PRES   REMARKS
DODGE CITY     CLEAR     67  63  87 SW8       29.89F
GARDEN CITY    CLEAR     67  64  90 S7        29.90F
GREAT BEND     PTCLDY    67  65  93 S7        29.85F
LIBERAL        CLEAR     66  64  93 S7        29.91F
$$

KSZ066>073-081>083-090>101-260900-
SOUTHEAST KANSAS

CITY           SKY/WX    TMP DP  RH WIND       PRES   REMARKS
CHANUTE        CLEAR     68  66  93 S6        29.84F
COFFEYVILLE    CLEAR     66  65  96 CALM      29.84S
HUTCHINSON     CLEAR     67  64  90 S3        29.83F
MEDICINE LODGE   N/A     67  64  90 CALM      29.85F
NEWTON         CLEAR     68  63  84 S8        29.85S
PARSONS        CLEAR     65  64  97 CALM      29.86S
WICHITA INTL   CLEAR     66  63  90 S6        29.84S
WICHITA JABRA  CLEAR     69  64  84 S8        29.84S
WINFIELD       CLEAR     68  65  90 CALM      29.85S
$$

KSZ007>012-019>026-033>040-048>060-102>105-260900-
NORTHEAST KANSAS

CITY           SKY/WX    TMP DP  RH WIND       PRES   REMARKS
CONCORDIA      CLEAR     71  66  84 SW8       29.80S
EMPORIA        CLEAR     65  62  90 S6        29.83F
LAWRENCE       PTCLDY    70  67  90 CALM      29.80S
MANHATTAN      CLEAR     68  65  90 SW5       29.80F
OLATHE IND     CLEAR     70  67  90 S8        29.82F
OLATHE EXE     CLEAR     68  66  93 S5        29.81F
SALINA         CLEAR     72  67  84 S8        29.81S
TOPEKA BILLARD CLEAR     73  68  84 S3        29.79F
TOPEKA FORBES  CLEAR     71  67  87 SW8       29.81S
$$



USA.gov is the U.S. government's official web portal to all federal, state and local government web resources and services.